Index of /20260503/WXO-DD/model_gdps/15km/00/033
Name Last modified Size Description
Parent Directory -
20260503T00Z_MSC_GDPS_AbsoluteVorticity_IsbL-0200_LatLon0.15_PT033H.grib2 2026-05-03 03:58 1.5M
20260503T00Z_MSC_GDPS_AbsoluteVorticity_IsbL-0250_LatLon0.15_PT033H.grib2 2026-05-03 03:58 1.3M
20260503T00Z_MSC_GDPS_AbsoluteVorticity_IsbL-0500_LatLon0.15_PT033H.grib2 2026-05-03 03:58 1.5M
20260503T00Z_MSC_GDPS_AbsoluteVorticity_IsbL-0700_LatLon0.15_PT033H.grib2 2026-05-03 03:58 1.3M
20260503T00Z_MSC_GDPS_AbsoluteVorticity_IsbL-0850_LatLon0.15_PT033H.grib2 2026-05-03 03:58 1.6M
20260503T00Z_MSC_GDPS_AirTemp_AGL-120m_LatLon0.15_PT033H.grib2 2026-05-03 03:58 903K
20260503T00Z_MSC_GDPS_AirTemp_AGL-2m_LatLon0.15_PT033H.grib2 2026-05-03 03:58 1.0M
20260503T00Z_MSC_GDPS_AirTemp_AGL-40m_LatLon0.15_PT033H.grib2 2026-05-03 03:58 805K
20260503T00Z_MSC_GDPS_AirTemp_AGL-80m_LatLon0.15_PT033H.grib2 2026-05-03 03:58 793K
20260503T00Z_MSC_GDPS_AirTemp_IsbL-0001_LatLon0.15_PT033H.grib2 2026-05-03 03:58 658K
20260503T00Z_MSC_GDPS_AirTemp_IsbL-0005_LatLon0.15_PT033H.grib2 2026-05-03 03:58 529K
20260503T00Z_MSC_GDPS_AirTemp_IsbL-0010_LatLon0.15_PT033H.grib2 2026-05-03 03:58 698K
20260503T00Z_MSC_GDPS_AirTemp_IsbL-0020_LatLon0.15_PT033H.grib2 2026-05-03 03:58 791K
20260503T00Z_MSC_GDPS_AirTemp_IsbL-0030_LatLon0.15_PT033H.grib2 2026-05-03 03:58 839K
20260503T00Z_MSC_GDPS_AirTemp_IsbL-0050_LatLon0.15_PT033H.grib2 2026-05-03 03:58 815K
20260503T00Z_MSC_GDPS_AirTemp_IsbL-0100_LatLon0.15_PT033H.grib2 2026-05-03 03:58 967K
20260503T00Z_MSC_GDPS_AirTemp_IsbL-0150_LatLon0.15_PT033H.grib2 2026-05-03 03:58 1.0M
20260503T00Z_MSC_GDPS_AirTemp_IsbL-0175_LatLon0.15_PT033H.grib2 2026-05-03 03:58 958K
20260503T00Z_MSC_GDPS_AirTemp_IsbL-0200_LatLon0.15_PT033H.grib2 2026-05-03 03:58 972K
20260503T00Z_MSC_GDPS_AirTemp_IsbL-0225_LatLon0.15_PT033H.grib2 2026-05-03 03:58 1.0M
20260503T00Z_MSC_GDPS_AirTemp_IsbL-0250_LatLon0.15_PT033H.grib2 2026-05-03 03:58 1.0M
20260503T00Z_MSC_GDPS_AirTemp_IsbL-0275_LatLon0.15_PT033H.grib2 2026-05-03 03:58 1.0M
20260503T00Z_MSC_GDPS_AirTemp_IsbL-0300_LatLon0.15_PT033H.grib2 2026-05-03 03:58 1.0M
20260503T00Z_MSC_GDPS_AirTemp_IsbL-0350_LatLon0.15_PT033H.grib2 2026-05-03 03:58 928K
20260503T00Z_MSC_GDPS_AirTemp_IsbL-0400_LatLon0.15_PT033H.grib2 2026-05-03 03:58 942K
20260503T00Z_MSC_GDPS_AirTemp_IsbL-0450_LatLon0.15_PT033H.grib2 2026-05-03 03:58 962K
20260503T00Z_MSC_GDPS_AirTemp_IsbL-0500_LatLon0.15_PT033H.grib2 2026-05-03 03:58 1.0M
20260503T00Z_MSC_GDPS_AirTemp_IsbL-0550_LatLon0.15_PT033H.grib2 2026-05-03 03:58 802K
20260503T00Z_MSC_GDPS_AirTemp_IsbL-0600_LatLon0.15_PT033H.grib2 2026-05-03 03:58 892K
20260503T00Z_MSC_GDPS_AirTemp_IsbL-0650_LatLon0.15_PT033H.grib2 2026-05-03 03:58 916K
20260503T00Z_MSC_GDPS_AirTemp_IsbL-0700_LatLon0.15_PT033H.grib2 2026-05-03 03:58 953K
20260503T00Z_MSC_GDPS_AirTemp_IsbL-0750_LatLon0.15_PT033H.grib2 2026-05-03 03:58 1.0M
20260503T00Z_MSC_GDPS_AirTemp_IsbL-0800_LatLon0.15_PT033H.grib2 2026-05-03 03:58 1.1M
20260503T00Z_MSC_GDPS_AirTemp_IsbL-0850_LatLon0.15_PT033H.grib2 2026-05-03 03:58 1.1M
20260503T00Z_MSC_GDPS_AirTemp_IsbL-0875_LatLon0.15_PT033H.grib2 2026-05-03 03:58 1.2M
20260503T00Z_MSC_GDPS_AirTemp_IsbL-0900_LatLon0.15_PT033H.grib2 2026-05-03 03:58 1.1M
20260503T00Z_MSC_GDPS_AirTemp_IsbL-0925_LatLon0.15_PT033H.grib2 2026-05-03 03:58 1.1M
20260503T00Z_MSC_GDPS_AirTemp_IsbL-0950_LatLon0.15_PT033H.grib2 2026-05-03 03:58 1.1M
20260503T00Z_MSC_GDPS_AirTemp_IsbL-0970_LatLon0.15_PT033H.grib2 2026-05-03 03:58 1.1M
20260503T00Z_MSC_GDPS_AirTemp_IsbL-0985_LatLon0.15_PT033H.grib2 2026-05-03 03:58 1.1M
20260503T00Z_MSC_GDPS_AirTemp_IsbL-1000_LatLon0.15_PT033H.grib2 2026-05-03 03:58 1.1M
20260503T00Z_MSC_GDPS_AirTemp_IsbL-1015_LatLon0.15_PT033H.grib2 2026-05-03 03:58 1.1M
20260503T00Z_MSC_GDPS_Albedo_Sfc_LatLon0.15_PT033H.grib2 2026-05-03 03:58 240K
20260503T00Z_MSC_GDPS_CAPE_Sfc_LatLon0.15_PT033H.grib2 2026-05-03 03:58 4.1M
20260503T00Z_MSC_GDPS_CIN_Sfc_LatLon0.15_PT033H.grib2 2026-05-03 03:58 2.9M
20260503T00Z_MSC_GDPS_CloudWater_EAtm_LatLon0.15_PT033H.grib2 2026-05-03 03:58 528K
20260503T00Z_MSC_GDPS_ConvectivePrecip-Accum_Sfc_LatLon0.15_PT033H.grib2 2026-05-03 03:58 2.6M
20260503T00Z_MSC_GDPS_DewPointDepression_AGL-2m_LatLon0.15_PT033H.grib2 2026-05-03 03:58 600K
20260503T00Z_MSC_GDPS_DewPointDepression_IsbL-0010_LatLon0.15_PT033H.grib2 2026-05-03 03:58 75K
20260503T00Z_MSC_GDPS_DewPointDepression_IsbL-0020_LatLon0.15_PT033H.grib2 2026-05-03 03:58 78K
20260503T00Z_MSC_GDPS_DewPointDepression_IsbL-0030_LatLon0.15_PT033H.grib2 2026-05-03 03:58 86K
20260503T00Z_MSC_GDPS_DewPointDepression_IsbL-0050_LatLon0.15_PT033H.grib2 2026-05-03 03:58 384K
20260503T00Z_MSC_GDPS_DewPointDepression_IsbL-0100_LatLon0.15_PT033H.grib2 2026-05-03 03:58 413K
20260503T00Z_MSC_GDPS_DewPointDepression_IsbL-0150_LatLon0.15_PT033H.grib2 2026-05-03 03:58 470K
20260503T00Z_MSC_GDPS_DewPointDepression_IsbL-0175_LatLon0.15_PT033H.grib2 2026-05-03 03:58 573K
20260503T00Z_MSC_GDPS_DewPointDepression_IsbL-0200_LatLon0.15_PT033H.grib2 2026-05-03 03:58 684K
20260503T00Z_MSC_GDPS_DewPointDepression_IsbL-0225_LatLon0.15_PT033H.grib2 2026-05-03 03:58 782K
20260503T00Z_MSC_GDPS_DewPointDepression_IsbL-0250_LatLon0.15_PT033H.grib2 2026-05-03 03:58 865K
20260503T00Z_MSC_GDPS_DewPointDepression_IsbL-0275_LatLon0.15_PT033H.grib2 2026-05-03 03:58 886K
20260503T00Z_MSC_GDPS_DewPointDepression_IsbL-0300_LatLon0.15_PT033H.grib2 2026-05-03 03:58 925K
20260503T00Z_MSC_GDPS_DewPointDepression_IsbL-0350_LatLon0.15_PT033H.grib2 2026-05-03 03:58 957K
20260503T00Z_MSC_GDPS_DewPointDepression_IsbL-0400_LatLon0.15_PT033H.grib2 2026-05-03 03:58 1.0M
20260503T00Z_MSC_GDPS_DewPointDepression_IsbL-0450_LatLon0.15_PT033H.grib2 2026-05-03 03:58 1.0M
20260503T00Z_MSC_GDPS_DewPointDepression_IsbL-0500_LatLon0.15_PT033H.grib2 2026-05-03 03:58 1.0M
20260503T00Z_MSC_GDPS_DewPointDepression_IsbL-0550_LatLon0.15_PT033H.grib2 2026-05-03 03:58 1.0M
20260503T00Z_MSC_GDPS_DewPointDepression_IsbL-0600_LatLon0.15_PT033H.grib2 2026-05-03 03:58 1.0M
20260503T00Z_MSC_GDPS_DewPointDepression_IsbL-0650_LatLon0.15_PT033H.grib2 2026-05-03 03:58 1.1M
20260503T00Z_MSC_GDPS_DewPointDepression_IsbL-0700_LatLon0.15_PT033H.grib2 2026-05-03 03:58 1.1M
20260503T00Z_MSC_GDPS_DewPointDepression_IsbL-0750_LatLon0.15_PT033H.grib2 2026-05-03 03:58 1.1M
20260503T00Z_MSC_GDPS_DewPointDepression_IsbL-0800_LatLon0.15_PT033H.grib2 2026-05-03 03:58 1.2M
20260503T00Z_MSC_GDPS_DewPointDepression_IsbL-0850_LatLon0.15_PT033H.grib2 2026-05-03 03:58 1.1M
20260503T00Z_MSC_GDPS_DewPointDepression_IsbL-0875_LatLon0.15_PT033H.grib2 2026-05-03 03:58 1.1M
20260503T00Z_MSC_GDPS_DewPointDepression_IsbL-0900_LatLon0.15_PT033H.grib2 2026-05-03 03:58 1.1M
20260503T00Z_MSC_GDPS_DewPointDepression_IsbL-0925_LatLon0.15_PT033H.grib2 2026-05-03 03:58 1.0M
20260503T00Z_MSC_GDPS_DewPointDepression_IsbL-0950_LatLon0.15_PT033H.grib2 2026-05-03 03:58 1.0M
20260503T00Z_MSC_GDPS_DewPointDepression_IsbL-0970_LatLon0.15_PT033H.grib2 2026-05-03 03:58 1.0M
20260503T00Z_MSC_GDPS_DewPointDepression_IsbL-0985_LatLon0.15_PT033H.grib2 2026-05-03 03:58 1.0M
20260503T00Z_MSC_GDPS_DewPointDepression_IsbL-1000_LatLon0.15_PT033H.grib2 2026-05-03 03:58 972K
20260503T00Z_MSC_GDPS_DewPointDepression_IsbL-1015_LatLon0.15_PT033H.grib2 2026-05-03 03:58 915K
20260503T00Z_MSC_GDPS_DewPoint_AGL-2m_LatLon0.15_PT033H.grib2 2026-05-03 03:58 611K
20260503T00Z_MSC_GDPS_DownwardLongwaveRadiationFlux-Accum_Sfc_LatLon0.15_PT033H.grib2 2026-05-03 03:58 776K
20260503T00Z_MSC_GDPS_DownwardShortwaveRadiationFlux-Accum_NTAtm_LatLon0.15_PT033H.grib2 2026-05-03 03:58 277K
20260503T00Z_MSC_GDPS_DownwardShortwaveRadiationFlux-Accum_Sfc_LatLon0.15_PT033H.grib2 2026-05-03 03:58 916K
20260503T00Z_MSC_GDPS_FreezingRain-Accum1h_Sfc_LatLon0.15_PT033H.grib2 2026-05-03 03:58 38K
20260503T00Z_MSC_GDPS_FreezingRain-Accum3h_Sfc_LatLon0.15_PT033H.grib2 2026-05-03 03:58 42K
20260503T00Z_MSC_GDPS_FreezingRain-Accum_Sfc_LatLon0.15_PT033H.grib2 2026-05-03 03:58 147K
20260503T00Z_MSC_GDPS_GeopotentialHeight_IsbL-0001_LatLon0.15_PT033H.grib2 2026-05-03 03:58 427K
20260503T00Z_MSC_GDPS_GeopotentialHeight_IsbL-0005_LatLon0.15_PT033H.grib2 2026-05-03 03:58 486K
20260503T00Z_MSC_GDPS_GeopotentialHeight_IsbL-0010_LatLon0.15_PT033H.grib2 2026-05-03 03:58 475K
20260503T00Z_MSC_GDPS_GeopotentialHeight_IsbL-0020_LatLon0.15_PT033H.grib2 2026-05-03 03:58 415K
20260503T00Z_MSC_GDPS_GeopotentialHeight_IsbL-0030_LatLon0.15_PT033H.grib2 2026-05-03 03:58 572K
20260503T00Z_MSC_GDPS_GeopotentialHeight_IsbL-0050_LatLon0.15_PT033H.grib2 2026-05-03 03:58 572K
20260503T00Z_MSC_GDPS_GeopotentialHeight_IsbL-0100_LatLon0.15_PT033H.grib2 2026-05-03 03:58 609K
20260503T00Z_MSC_GDPS_GeopotentialHeight_IsbL-0150_LatLon0.15_PT033H.grib2 2026-05-03 03:58 627K
20260503T00Z_MSC_GDPS_GeopotentialHeight_IsbL-0175_LatLon0.15_PT033H.grib2 2026-05-03 03:58 630K
20260503T00Z_MSC_GDPS_GeopotentialHeight_IsbL-0200_LatLon0.15_PT033H.grib2 2026-05-03 03:58 636K
20260503T00Z_MSC_GDPS_GeopotentialHeight_IsbL-0225_LatLon0.15_PT033H.grib2 2026-05-03 03:58 641K
20260503T00Z_MSC_GDPS_GeopotentialHeight_IsbL-0250_LatLon0.15_PT033H.grib2 2026-05-03 03:58 641K
20260503T00Z_MSC_GDPS_GeopotentialHeight_IsbL-0275_LatLon0.15_PT033H.grib2 2026-05-03 03:58 644K
20260503T00Z_MSC_GDPS_GeopotentialHeight_IsbL-0300_LatLon0.15_PT033H.grib2 2026-05-03 03:58 636K
20260503T00Z_MSC_GDPS_GeopotentialHeight_IsbL-0350_LatLon0.15_PT033H.grib2 2026-05-03 03:58 633K
20260503T00Z_MSC_GDPS_GeopotentialHeight_IsbL-0400_LatLon0.15_PT033H.grib2 2026-05-03 03:58 623K
20260503T00Z_MSC_GDPS_GeopotentialHeight_IsbL-0450_LatLon0.15_PT033H.grib2 2026-05-03 03:58 615K
20260503T00Z_MSC_GDPS_GeopotentialHeight_IsbL-0500_LatLon0.15_PT033H.grib2 2026-05-03 03:58 605K
20260503T00Z_MSC_GDPS_GeopotentialHeight_IsbL-0550_LatLon0.15_PT033H.grib2 2026-05-03 03:58 527K
20260503T00Z_MSC_GDPS_GeopotentialHeight_IsbL-0600_LatLon0.15_PT033H.grib2 2026-05-03 03:58 524K
20260503T00Z_MSC_GDPS_GeopotentialHeight_IsbL-0650_LatLon0.15_PT033H.grib2 2026-05-03 03:58 690K
20260503T00Z_MSC_GDPS_GeopotentialHeight_IsbL-0700_LatLon0.15_PT033H.grib2 2026-05-03 03:58 687K
20260503T00Z_MSC_GDPS_GeopotentialHeight_IsbL-0750_LatLon0.15_PT033H.grib2 2026-05-03 03:58 692K
20260503T00Z_MSC_GDPS_GeopotentialHeight_IsbL-0800_LatLon0.15_PT033H.grib2 2026-05-03 03:58 701K
20260503T00Z_MSC_GDPS_GeopotentialHeight_IsbL-0850_LatLon0.15_PT033H.grib2 2026-05-03 03:58 715K
20260503T00Z_MSC_GDPS_GeopotentialHeight_IsbL-0875_LatLon0.15_PT033H.grib2 2026-05-03 03:58 719K
20260503T00Z_MSC_GDPS_GeopotentialHeight_IsbL-0900_LatLon0.15_PT033H.grib2 2026-05-03 03:58 727K
20260503T00Z_MSC_GDPS_GeopotentialHeight_IsbL-0925_LatLon0.15_PT033H.grib2 2026-05-03 03:58 733K
20260503T00Z_MSC_GDPS_GeopotentialHeight_IsbL-0950_LatLon0.15_PT033H.grib2 2026-05-03 03:58 740K
20260503T00Z_MSC_GDPS_GeopotentialHeight_IsbL-0970_LatLon0.15_PT033H.grib2 2026-05-03 03:58 751K
20260503T00Z_MSC_GDPS_GeopotentialHeight_IsbL-0985_LatLon0.15_PT033H.grib2 2026-05-03 03:58 767K
20260503T00Z_MSC_GDPS_GeopotentialHeight_IsbL-1000_LatLon0.15_PT033H.grib2 2026-05-03 03:58 786K
20260503T00Z_MSC_GDPS_GeopotentialHeight_IsbL-1015_LatLon0.15_PT033H.grib2 2026-05-03 03:58 810K
20260503T00Z_MSC_GDPS_Humidex_Sfc_LatLon0.15_PT033H.grib2 2026-05-03 03:58 5.3M
20260503T00Z_MSC_GDPS_IcePellets-Accum1h_Sfc_LatLon0.15_PT033H.grib2 2026-05-03 03:58 7.2K
20260503T00Z_MSC_GDPS_IcePellets-Accum3h_Sfc_LatLon0.15_PT033H.grib2 2026-05-03 03:58 6.7K
20260503T00Z_MSC_GDPS_IcePellets-Accum_Sfc_LatLon0.15_PT033H.grib2 2026-05-03 03:58 22K
20260503T00Z_MSC_GDPS_KIndex_Sfc_LatLon0.15_PT033H.grib2 2026-05-03 03:58 6.5M
20260503T00Z_MSC_GDPS_LatentHeatNetFlux_Sfc_LatLon0.15_PT033H.grib2 2026-05-03 03:58 559K
20260503T00Z_MSC_GDPS_LiftedIndex-MU-VT_IsbL-0500_LatLon0.15_PT033H.grib2 2026-05-03 03:58 5.4M
20260503T00Z_MSC_GDPS_NetLongwaveRadiationFlux-Accum_Sfc_LatLon0.15_PT033H.grib2 2026-05-03 03:58 1.0M
20260503T00Z_MSC_GDPS_NetShortwaveRadiationFlux-Accum_Sfc_LatLon0.15_PT033H.grib2 2026-05-03 03:58 892K
20260503T00Z_MSC_GDPS_O3MixingRatio_Sfc_LatLon0.15_PT033H.grib2 2026-05-03 04:44 2.0M
20260503T00Z_MSC_GDPS_O3_EAtm_LatLon0.15_PT033H.grib2 2026-05-03 04:44 2.5M
20260503T00Z_MSC_GDPS_PlanetaryBoundaryLayerHeight_Sfc_LatLon0.15_PT033H.grib2 2026-05-03 03:58 2.5M
20260503T00Z_MSC_GDPS_Precip-Accum1h_Sfc_LatLon0.15_PT033H.grib2 2026-05-03 03:58 3.2M
20260503T00Z_MSC_GDPS_Precip-Accum3h_Sfc_LatLon0.15_PT033H.grib2 2026-05-03 03:58 3.5M
20260503T00Z_MSC_GDPS_Precip-Accum_Sfc_LatLon0.15_PT033H.grib2 2026-05-03 03:58 4.6M
20260503T00Z_MSC_GDPS_PrecipRate_Sfc_LatLon0.15_PT033H.grib2 2026-05-03 03:58 3.0M
20260503T00Z_MSC_GDPS_PrecipType-Instant_Sfc_LatLon0.15_PT033H.grib2 2026-05-03 03:58 1.6M
20260503T00Z_MSC_GDPS_Pressure_MSL_LatLon0.15_PT033H.grib2 2026-05-03 03:58 831K
20260503T00Z_MSC_GDPS_Pressure_PVU-1.5_LatLon0.15_PT033H.grib2 2026-05-03 03:58 5.8M
20260503T00Z_MSC_GDPS_Pressure_PVU-1_LatLon0.15_PT033H.grib2 2026-05-03 03:58 6.0M
20260503T00Z_MSC_GDPS_Pressure_PVU-2_LatLon0.15_PT033H.grib2 2026-05-03 03:58 5.6M
20260503T00Z_MSC_GDPS_Pressure_Sfc_LatLon0.15_PT033H.grib2 2026-05-03 03:58 1.1M
20260503T00Z_MSC_GDPS_RadiativeTemp_Sfc_LatLon0.15_PT033H.grib2 2026-05-03 03:58 502K
20260503T00Z_MSC_GDPS_Rain-Accum1h_Sfc_LatLon0.15_PT033H.grib2 2026-05-03 03:58 1.7M
20260503T00Z_MSC_GDPS_Rain-Accum3h_Sfc_LatLon0.15_PT033H.grib2 2026-05-03 03:58 1.9M
20260503T00Z_MSC_GDPS_Rain-Accum_Sfc_LatLon0.15_PT033H.grib2 2026-05-03 03:58 3.4M
20260503T00Z_MSC_GDPS_RelativeHumidity_AGL-2m_LatLon0.15_PT033H.grib2 2026-05-03 03:58 1.1M
20260503T00Z_MSC_GDPS_RelativeHumidity_IsbL-0010_LatLon0.15_PT033H.grib2 2026-05-03 03:58 138K
20260503T00Z_MSC_GDPS_RelativeHumidity_IsbL-0020_LatLon0.15_PT033H.grib2 2026-05-03 03:58 176K
20260503T00Z_MSC_GDPS_RelativeHumidity_IsbL-0030_LatLon0.15_PT033H.grib2 2026-05-03 03:58 275K
20260503T00Z_MSC_GDPS_RelativeHumidity_IsbL-0050_LatLon0.15_PT033H.grib2 2026-05-03 03:58 428K
20260503T00Z_MSC_GDPS_RelativeHumidity_IsbL-0100_LatLon0.15_PT033H.grib2 2026-05-03 03:58 515K
20260503T00Z_MSC_GDPS_RelativeHumidity_IsbL-0150_LatLon0.15_PT033H.grib2 2026-05-03 03:58 660K
20260503T00Z_MSC_GDPS_RelativeHumidity_IsbL-0175_LatLon0.15_PT033H.grib2 2026-05-03 03:58 586K
20260503T00Z_MSC_GDPS_RelativeHumidity_IsbL-0200_LatLon0.15_PT033H.grib2 2026-05-03 03:58 701K
20260503T00Z_MSC_GDPS_RelativeHumidity_IsbL-0225_LatLon0.15_PT033H.grib2 2026-05-03 03:58 787K
20260503T00Z_MSC_GDPS_RelativeHumidity_IsbL-0250_LatLon0.15_PT033H.grib2 2026-05-03 03:58 865K
20260503T00Z_MSC_GDPS_RelativeHumidity_IsbL-0275_LatLon0.15_PT033H.grib2 2026-05-03 03:58 888K
20260503T00Z_MSC_GDPS_RelativeHumidity_IsbL-0300_LatLon0.15_PT033H.grib2 2026-05-03 03:58 929K
20260503T00Z_MSC_GDPS_RelativeHumidity_IsbL-0350_LatLon0.15_PT033H.grib2 2026-05-03 03:58 951K
20260503T00Z_MSC_GDPS_RelativeHumidity_IsbL-0400_LatLon0.15_PT033H.grib2 2026-05-03 03:58 972K
20260503T00Z_MSC_GDPS_RelativeHumidity_IsbL-0450_LatLon0.15_PT033H.grib2 2026-05-03 03:58 1.0M
20260503T00Z_MSC_GDPS_RelativeHumidity_IsbL-0500_LatLon0.15_PT033H.grib2 2026-05-03 03:58 1.0M
20260503T00Z_MSC_GDPS_RelativeHumidity_IsbL-0550_LatLon0.15_PT033H.grib2 2026-05-03 03:58 1.1M
20260503T00Z_MSC_GDPS_RelativeHumidity_IsbL-0600_LatLon0.15_PT033H.grib2 2026-05-03 03:58 1.1M
20260503T00Z_MSC_GDPS_RelativeHumidity_IsbL-0650_LatLon0.15_PT033H.grib2 2026-05-03 03:58 1.1M
20260503T00Z_MSC_GDPS_RelativeHumidity_IsbL-0700_LatLon0.15_PT033H.grib2 2026-05-03 03:58 1.1M
20260503T00Z_MSC_GDPS_RelativeHumidity_IsbL-0750_LatLon0.15_PT033H.grib2 2026-05-03 03:58 1.2M
20260503T00Z_MSC_GDPS_RelativeHumidity_IsbL-0800_LatLon0.15_PT033H.grib2 2026-05-03 03:58 1.3M
20260503T00Z_MSC_GDPS_RelativeHumidity_IsbL-0850_LatLon0.15_PT033H.grib2 2026-05-03 03:58 1.3M
20260503T00Z_MSC_GDPS_RelativeHumidity_IsbL-0875_LatLon0.15_PT033H.grib2 2026-05-03 03:58 1.3M
20260503T00Z_MSC_GDPS_RelativeHumidity_IsbL-0900_LatLon0.15_PT033H.grib2 2026-05-03 03:58 1.3M
20260503T00Z_MSC_GDPS_RelativeHumidity_IsbL-0925_LatLon0.15_PT033H.grib2 2026-05-03 03:58 1.2M
20260503T00Z_MSC_GDPS_RelativeHumidity_IsbL-0950_LatLon0.15_PT033H.grib2 2026-05-03 03:58 1.2M
20260503T00Z_MSC_GDPS_RelativeHumidity_IsbL-0970_LatLon0.15_PT033H.grib2 2026-05-03 03:58 1.2M
20260503T00Z_MSC_GDPS_RelativeHumidity_IsbL-0985_LatLon0.15_PT033H.grib2 2026-05-03 03:58 1.1M
20260503T00Z_MSC_GDPS_RelativeHumidity_IsbL-1000_LatLon0.15_PT033H.grib2 2026-05-03 03:58 1.1M
20260503T00Z_MSC_GDPS_RelativeHumidity_IsbL-1015_LatLon0.15_PT033H.grib2 2026-05-03 03:58 1.0M
20260503T00Z_MSC_GDPS_RelativeVorticity_IsbL-0200_LatLon0.15_PT033H.grib2 2026-05-03 03:58 1.5M
20260503T00Z_MSC_GDPS_RelativeVorticity_IsbL-0250_LatLon0.15_PT033H.grib2 2026-05-03 03:58 1.6M
20260503T00Z_MSC_GDPS_RelativeVorticity_IsbL-0500_LatLon0.15_PT033H.grib2 2026-05-03 03:58 1.5M
20260503T00Z_MSC_GDPS_RelativeVorticity_IsbL-0700_LatLon0.15_PT033H.grib2 2026-05-03 03:58 1.3M
20260503T00Z_MSC_GDPS_RelativeVorticity_IsbL-0850_LatLon0.15_PT033H.grib2 2026-05-03 03:58 1.6M
20260503T00Z_MSC_GDPS_Runoff-Accum_Sfc_LatLon0.15_PT033H.grib2 2026-05-03 03:58 102K
20260503T00Z_MSC_GDPS_SensibleHeatNetFlux_Sfc_LatLon0.15_PT033H.grib2 2026-05-03 03:58 666K
20260503T00Z_MSC_GDPS_ShowalterIndex_IsbL-0500_LatLon0.15_PT033H.grib2 2026-05-03 03:58 6.2M
20260503T00Z_MSC_GDPS_Snow-Accum1h_Sfc_LatLon0.15_PT033H.grib2 2026-05-03 03:58 1.1M
20260503T00Z_MSC_GDPS_Snow-Accum3h_Sfc_LatLon0.15_PT033H.grib2 2026-05-03 03:58 940K
20260503T00Z_MSC_GDPS_Snow-Accum_Sfc_LatLon0.15_PT033H.grib2 2026-05-03 03:58 1.7M
20260503T00Z_MSC_GDPS_SnowDensity_Sfc_LatLon0.15_PT033H.grib2 2026-05-03 03:58 252K
20260503T00Z_MSC_GDPS_SnowDepth_Sfc_LatLon0.15_PT033H.grib2 2026-05-03 03:58 1.7M
20260503T00Z_MSC_GDPS_SoilTemp_DBS-0to10cm_LatLon0.15_PT033H.grib2 2026-05-03 03:58 502K
20260503T00Z_MSC_GDPS_SoilTemp_Sfc_LatLon0.15_PT033H.grib2 2026-05-03 03:58 590K
20260503T00Z_MSC_GDPS_SoilVolumetricIceContent_Sfc_LatLon0.15_PT033H.grib2 2026-05-03 03:58 195K
20260503T00Z_MSC_GDPS_SoilVolumetricWaterContent_DBS-0to10cm_LatLon0.15_PT033H.grib2 2026-05-03 03:58 589K
20260503T00Z_MSC_GDPS_SoilVolumetricWaterContent_DBS-0to1cm_LatLon0.15_PT033H.grib2 2026-05-03 03:58 647K
20260503T00Z_MSC_GDPS_SpecificHumidity_AGL-120m_LatLon0.15_PT033H.grib2 2026-05-03 03:58 1.1M
20260503T00Z_MSC_GDPS_SpecificHumidity_AGL-2m_LatLon0.15_PT033H.grib2 2026-05-03 03:58 1.2M
20260503T00Z_MSC_GDPS_SpecificHumidity_AGL-40m_LatLon0.15_PT033H.grib2 2026-05-03 03:58 1.1M
20260503T00Z_MSC_GDPS_SpecificHumidity_AGL-80m_LatLon0.15_PT033H.grib2 2026-05-03 03:58 1.1M
20260503T00Z_MSC_GDPS_SpecificHumidity_IsbL-0001_LatLon0.15_PT033H.grib2 2026-05-03 03:58 1.4M
20260503T00Z_MSC_GDPS_SpecificHumidity_IsbL-0005_LatLon0.15_PT033H.grib2 2026-05-03 03:58 1.3M
20260503T00Z_MSC_GDPS_SpecificHumidity_IsbL-0010_LatLon0.15_PT033H.grib2 2026-05-03 03:58 1.4M
20260503T00Z_MSC_GDPS_SpecificHumidity_IsbL-0020_LatLon0.15_PT033H.grib2 2026-05-03 03:58 1.4M
20260503T00Z_MSC_GDPS_SpecificHumidity_IsbL-0030_LatLon0.15_PT033H.grib2 2026-05-03 03:58 1.4M
20260503T00Z_MSC_GDPS_SpecificHumidity_IsbL-0050_LatLon0.15_PT033H.grib2 2026-05-03 03:58 1.4M
20260503T00Z_MSC_GDPS_SpecificHumidity_IsbL-0100_LatLon0.15_PT033H.grib2 2026-05-03 03:58 1.4M
20260503T00Z_MSC_GDPS_SpecificHumidity_IsbL-0150_LatLon0.15_PT033H.grib2 2026-05-03 03:58 1.3M
20260503T00Z_MSC_GDPS_SpecificHumidity_IsbL-0175_LatLon0.15_PT033H.grib2 2026-05-03 03:58 1.3M
20260503T00Z_MSC_GDPS_SpecificHumidity_IsbL-0200_LatLon0.15_PT033H.grib2 2026-05-03 03:58 1.3M
20260503T00Z_MSC_GDPS_SpecificHumidity_IsbL-0225_LatLon0.15_PT033H.grib2 2026-05-03 03:58 1.3M
20260503T00Z_MSC_GDPS_SpecificHumidity_IsbL-0250_LatLon0.15_PT033H.grib2 2026-05-03 03:58 1.4M
20260503T00Z_MSC_GDPS_SpecificHumidity_IsbL-0275_LatLon0.15_PT033H.grib2 2026-05-03 03:58 1.3M
20260503T00Z_MSC_GDPS_SpecificHumidity_IsbL-0300_LatLon0.15_PT033H.grib2 2026-05-03 03:58 1.2M
20260503T00Z_MSC_GDPS_SpecificHumidity_IsbL-0350_LatLon0.15_PT033H.grib2 2026-05-03 03:58 1.2M
20260503T00Z_MSC_GDPS_SpecificHumidity_IsbL-0400_LatLon0.15_PT033H.grib2 2026-05-03 03:58 1.5M
20260503T00Z_MSC_GDPS_SpecificHumidity_IsbL-0450_LatLon0.15_PT033H.grib2 2026-05-03 03:58 1.6M
20260503T00Z_MSC_GDPS_SpecificHumidity_IsbL-0500_LatLon0.15_PT033H.grib2 2026-05-03 03:58 1.4M
20260503T00Z_MSC_GDPS_SpecificHumidity_IsbL-0550_LatLon0.15_PT033H.grib2 2026-05-03 03:58 1.6M
20260503T00Z_MSC_GDPS_SpecificHumidity_IsbL-0600_LatLon0.15_PT033H.grib2 2026-05-03 03:58 1.7M
20260503T00Z_MSC_GDPS_SpecificHumidity_IsbL-0650_LatLon0.15_PT033H.grib2 2026-05-03 03:58 1.5M
20260503T00Z_MSC_GDPS_SpecificHumidity_IsbL-0700_LatLon0.15_PT033H.grib2 2026-05-03 03:58 1.6M
20260503T00Z_MSC_GDPS_SpecificHumidity_IsbL-0750_LatLon0.15_PT033H.grib2 2026-05-03 03:58 1.7M
20260503T00Z_MSC_GDPS_SpecificHumidity_IsbL-0800_LatLon0.15_PT033H.grib2 2026-05-03 03:58 1.8M
20260503T00Z_MSC_GDPS_SpecificHumidity_IsbL-0850_LatLon0.15_PT033H.grib2 2026-05-03 03:58 1.9M
20260503T00Z_MSC_GDPS_SpecificHumidity_IsbL-0875_LatLon0.15_PT033H.grib2 2026-05-03 03:58 1.9M
20260503T00Z_MSC_GDPS_SpecificHumidity_IsbL-0900_LatLon0.15_PT033H.grib2 2026-05-03 03:58 1.6M
20260503T00Z_MSC_GDPS_SpecificHumidity_IsbL-0925_LatLon0.15_PT033H.grib2 2026-05-03 03:58 1.6M
20260503T00Z_MSC_GDPS_SpecificHumidity_IsbL-0950_LatLon0.15_PT033H.grib2 2026-05-03 03:58 1.6M
20260503T00Z_MSC_GDPS_SpecificHumidity_IsbL-0970_LatLon0.15_PT033H.grib2 2026-05-03 03:58 1.5M
20260503T00Z_MSC_GDPS_SpecificHumidity_IsbL-0985_LatLon0.15_PT033H.grib2 2026-05-03 03:58 1.5M
20260503T00Z_MSC_GDPS_SpecificHumidity_IsbL-1000_LatLon0.15_PT033H.grib2 2026-05-03 03:58 1.5M
20260503T00Z_MSC_GDPS_SpecificHumidity_IsbL-1015_LatLon0.15_PT033H.grib2 2026-05-03 03:58 1.5M
20260503T00Z_MSC_GDPS_SpecificHumidity_Sfc_LatLon0.15_PT033H.grib2 2026-05-03 03:58 679K
20260503T00Z_MSC_GDPS_Thickness_IsbL-0850to0700_LatLon0.15_PT033H.grib2 2026-05-03 03:58 469K
20260503T00Z_MSC_GDPS_Thickness_IsbL-1000to0500_LatLon0.15_PT033H.grib2 2026-05-03 03:58 372K
20260503T00Z_MSC_GDPS_Thickness_IsbL-1000to0850_LatLon0.15_PT033H.grib2 2026-05-03 03:58 490K
20260503T00Z_MSC_GDPS_TotalCloudCover_Sfc_LatLon0.15_PT033H.grib2 2026-05-03 03:58 830K
20260503T00Z_MSC_GDPS_TotalTotalsIndex_Sfc_LatLon0.15_PT033H.grib2 2026-05-03 03:58 6.2M
20260503T00Z_MSC_GDPS_UVIndex-ClearSky_Sfc_LatLon0.15_PT033H.grib2 2026-05-03 04:44 1.1M
20260503T00Z_MSC_GDPS_UVIndex_Sfc_LatLon0.15_PT033H.grib2 2026-05-03 04:44 1.5M
20260503T00Z_MSC_GDPS_UpwardLongwaveRadiationFlux_NTAtm_LatLon0.15_PT033H.grib2 2026-05-03 03:58 842K
20260503T00Z_MSC_GDPS_VerticalVelocity_IsbL-0200_LatLon0.15_PT033H.grib2 2026-05-03 03:58 934K
20260503T00Z_MSC_GDPS_VerticalVelocity_IsbL-0250_LatLon0.15_PT033H.grib2 2026-05-03 03:58 1.1M
20260503T00Z_MSC_GDPS_VerticalVelocity_IsbL-0500_LatLon0.15_PT033H.grib2 2026-05-03 03:58 1.0M
20260503T00Z_MSC_GDPS_VerticalVelocity_IsbL-0600_LatLon0.15_PT033H.grib2 2026-05-03 03:58 1.1M
20260503T00Z_MSC_GDPS_VerticalVelocity_IsbL-0700_LatLon0.15_PT033H.grib2 2026-05-03 03:58 1.1M
20260503T00Z_MSC_GDPS_VerticalVelocity_IsbL-0850_LatLon0.15_PT033H.grib2 2026-05-03 03:58 1.3M
20260503T00Z_MSC_GDPS_WindChill_Sfc_LatLon0.15_PT033H.grib2 2026-05-03 03:58 5.3M
20260503T00Z_MSC_GDPS_WindDir_AGL-10m_LatLon0.15_PT033H.grib2 2026-05-03 03:58 1.3M
20260503T00Z_MSC_GDPS_WindDir_AGL-120m_LatLon0.15_PT033H.grib2 2026-05-03 03:58 1.3M
20260503T00Z_MSC_GDPS_WindDir_AGL-40m_LatLon0.15_PT033H.grib2 2026-05-03 03:58 1.4M
20260503T00Z_MSC_GDPS_WindDir_AGL-80m_LatLon0.15_PT033H.grib2 2026-05-03 03:58 1.3M
20260503T00Z_MSC_GDPS_WindDir_IsbL-0001_LatLon0.15_PT033H.grib2 2026-05-03 03:58 680K
20260503T00Z_MSC_GDPS_WindDir_IsbL-0005_LatLon0.15_PT033H.grib2 2026-05-03 03:58 831K
20260503T00Z_MSC_GDPS_WindDir_IsbL-0010_LatLon0.15_PT033H.grib2 2026-05-03 03:58 864K
20260503T00Z_MSC_GDPS_WindDir_IsbL-0020_LatLon0.15_PT033H.grib2 2026-05-03 03:58 959K
20260503T00Z_MSC_GDPS_WindDir_IsbL-0030_LatLon0.15_PT033H.grib2 2026-05-03 03:58 959K
20260503T00Z_MSC_GDPS_WindDir_IsbL-0050_LatLon0.15_PT033H.grib2 2026-05-03 03:58 953K
20260503T00Z_MSC_GDPS_WindDir_IsbL-0100_LatLon0.15_PT033H.grib2 2026-05-03 03:58 1.0M
20260503T00Z_MSC_GDPS_WindDir_IsbL-0150_LatLon0.15_PT033H.grib2 2026-05-03 03:58 1.0M
20260503T00Z_MSC_GDPS_WindDir_IsbL-0175_LatLon0.15_PT033H.grib2 2026-05-03 03:58 1.0M
20260503T00Z_MSC_GDPS_WindDir_IsbL-0200_LatLon0.15_PT033H.grib2 2026-05-03 03:58 1.1M
20260503T00Z_MSC_GDPS_WindDir_IsbL-0225_LatLon0.15_PT033H.grib2 2026-05-03 03:58 1.1M
20260503T00Z_MSC_GDPS_WindDir_IsbL-0250_LatLon0.15_PT033H.grib2 2026-05-03 03:58 1.1M
20260503T00Z_MSC_GDPS_WindDir_IsbL-0275_LatLon0.15_PT033H.grib2 2026-05-03 03:58 1.2M
20260503T00Z_MSC_GDPS_WindDir_IsbL-0300_LatLon0.15_PT033H.grib2 2026-05-03 03:58 1.2M
20260503T00Z_MSC_GDPS_WindDir_IsbL-0350_LatLon0.15_PT033H.grib2 2026-05-03 03:58 1.2M
20260503T00Z_MSC_GDPS_WindDir_IsbL-0400_LatLon0.15_PT033H.grib2 2026-05-03 03:58 1.3M
20260503T00Z_MSC_GDPS_WindDir_IsbL-0450_LatLon0.15_PT033H.grib2 2026-05-03 03:58 1.3M
20260503T00Z_MSC_GDPS_WindDir_IsbL-0500_LatLon0.15_PT033H.grib2 2026-05-03 03:58 1.3M
20260503T00Z_MSC_GDPS_WindDir_IsbL-0550_LatLon0.15_PT033H.grib2 2026-05-03 03:58 1.4M
20260503T00Z_MSC_GDPS_WindDir_IsbL-0600_LatLon0.15_PT033H.grib2 2026-05-03 03:58 1.4M
20260503T00Z_MSC_GDPS_WindDir_IsbL-0650_LatLon0.15_PT033H.grib2 2026-05-03 03:58 1.5M
20260503T00Z_MSC_GDPS_WindDir_IsbL-0700_LatLon0.15_PT033H.grib2 2026-05-03 03:58 1.6M
20260503T00Z_MSC_GDPS_WindDir_IsbL-0750_LatLon0.15_PT033H.grib2 2026-05-03 03:58 1.7M
20260503T00Z_MSC_GDPS_WindDir_IsbL-0800_LatLon0.15_PT033H.grib2 2026-05-03 03:58 1.8M
20260503T00Z_MSC_GDPS_WindDir_IsbL-0850_LatLon0.15_PT033H.grib2 2026-05-03 03:58 1.9M
20260503T00Z_MSC_GDPS_WindDir_IsbL-0875_LatLon0.15_PT033H.grib2 2026-05-03 03:58 1.9M
20260503T00Z_MSC_GDPS_WindDir_IsbL-0900_LatLon0.15_PT033H.grib2 2026-05-03 03:58 1.9M
20260503T00Z_MSC_GDPS_WindDir_IsbL-0925_LatLon0.15_PT033H.grib2 2026-05-03 03:58 1.9M
20260503T00Z_MSC_GDPS_WindDir_IsbL-0950_LatLon0.15_PT033H.grib2 2026-05-03 03:58 1.9M
20260503T00Z_MSC_GDPS_WindDir_IsbL-0970_LatLon0.15_PT033H.grib2 2026-05-03 03:58 2.0M
20260503T00Z_MSC_GDPS_WindDir_IsbL-0985_LatLon0.15_PT033H.grib2 2026-05-03 03:58 2.0M
20260503T00Z_MSC_GDPS_WindDir_IsbL-1000_LatLon0.15_PT033H.grib2 2026-05-03 03:58 2.0M
20260503T00Z_MSC_GDPS_WindDir_IsbL-1015_LatLon0.15_PT033H.grib2 2026-05-03 03:58 2.0M
20260503T00Z_MSC_GDPS_WindGust-Max_AGL-10m_LatLon0.15_PT033H.grib2 2026-05-03 03:58 2.2M
20260503T00Z_MSC_GDPS_WindGust-Min_AGL-10m_LatLon0.15_PT033H.grib2 2026-05-03 03:58 2.2M
20260503T00Z_MSC_GDPS_WindGust_AGL-10m_LatLon0.15_PT033H.grib2 2026-05-03 03:58 2.2M
20260503T00Z_MSC_GDPS_WindSpeed_AGL-10m_LatLon0.15_PT033H.grib2 2026-05-03 03:58 1.1M
20260503T00Z_MSC_GDPS_WindSpeed_AGL-120m_LatLon0.15_PT033H.grib2 2026-05-03 03:58 1.2M
20260503T00Z_MSC_GDPS_WindSpeed_AGL-40m_LatLon0.15_PT033H.grib2 2026-05-03 03:58 1.2M
20260503T00Z_MSC_GDPS_WindSpeed_AGL-80m_LatLon0.15_PT033H.grib2 2026-05-03 03:58 1.2M
20260503T00Z_MSC_GDPS_WindSpeed_IsbL-0001_LatLon0.15_PT033H.grib2 2026-05-03 03:58 645K
20260503T00Z_MSC_GDPS_WindSpeed_IsbL-0005_LatLon0.15_PT033H.grib2 2026-05-03 03:58 699K
20260503T00Z_MSC_GDPS_WindSpeed_IsbL-0010_LatLon0.15_PT033H.grib2 2026-05-03 03:58 635K
20260503T00Z_MSC_GDPS_WindSpeed_IsbL-0020_LatLon0.15_PT033H.grib2 2026-05-03 03:58 672K
20260503T00Z_MSC_GDPS_WindSpeed_IsbL-0030_LatLon0.15_PT033H.grib2 2026-05-03 03:58 872K
20260503T00Z_MSC_GDPS_WindSpeed_IsbL-0050_LatLon0.15_PT033H.grib2 2026-05-03 03:58 916K
20260503T00Z_MSC_GDPS_WindSpeed_IsbL-0100_LatLon0.15_PT033H.grib2 2026-05-03 03:58 1.1M
20260503T00Z_MSC_GDPS_WindSpeed_IsbL-0150_LatLon0.15_PT033H.grib2 2026-05-03 03:58 944K
20260503T00Z_MSC_GDPS_WindSpeed_IsbL-0175_LatLon0.15_PT033H.grib2 2026-05-03 03:58 1.0M
20260503T00Z_MSC_GDPS_WindSpeed_IsbL-0200_LatLon0.15_PT033H.grib2 2026-05-03 03:58 1.1M
20260503T00Z_MSC_GDPS_WindSpeed_IsbL-0225_LatLon0.15_PT033H.grib2 2026-05-03 03:58 1.1M
20260503T00Z_MSC_GDPS_WindSpeed_IsbL-0250_LatLon0.15_PT033H.grib2 2026-05-03 03:58 1.1M
20260503T00Z_MSC_GDPS_WindSpeed_IsbL-0275_LatLon0.15_PT033H.grib2 2026-05-03 03:58 1.1M
20260503T00Z_MSC_GDPS_WindSpeed_IsbL-0300_LatLon0.15_PT033H.grib2 2026-05-03 03:58 1.1M
20260503T00Z_MSC_GDPS_WindSpeed_IsbL-0350_LatLon0.15_PT033H.grib2 2026-05-03 03:58 1.1M
20260503T00Z_MSC_GDPS_WindSpeed_IsbL-0400_LatLon0.15_PT033H.grib2 2026-05-03 03:58 1.1M
20260503T00Z_MSC_GDPS_WindSpeed_IsbL-0450_LatLon0.15_PT033H.grib2 2026-05-03 03:58 1.1M
20260503T00Z_MSC_GDPS_WindSpeed_IsbL-0500_LatLon0.15_PT033H.grib2 2026-05-03 03:58 1.1M
20260503T00Z_MSC_GDPS_WindSpeed_IsbL-0550_LatLon0.15_PT033H.grib2 2026-05-03 03:58 1.1M
20260503T00Z_MSC_GDPS_WindSpeed_IsbL-0600_LatLon0.15_PT033H.grib2 2026-05-03 03:58 1.1M
20260503T00Z_MSC_GDPS_WindSpeed_IsbL-0650_LatLon0.15_PT033H.grib2 2026-05-03 03:58 1.4M
20260503T00Z_MSC_GDPS_WindSpeed_IsbL-0700_LatLon0.15_PT033H.grib2 2026-05-03 03:58 1.5M
20260503T00Z_MSC_GDPS_WindSpeed_IsbL-0750_LatLon0.15_PT033H.grib2 2026-05-03 03:58 1.6M
20260503T00Z_MSC_GDPS_WindSpeed_IsbL-0800_LatLon0.15_PT033H.grib2 2026-05-03 03:58 1.7M
20260503T00Z_MSC_GDPS_WindSpeed_IsbL-0850_LatLon0.15_PT033H.grib2 2026-05-03 03:58 1.7M
20260503T00Z_MSC_GDPS_WindSpeed_IsbL-0875_LatLon0.15_PT033H.grib2 2026-05-03 03:58 1.8M
20260503T00Z_MSC_GDPS_WindSpeed_IsbL-0900_LatLon0.15_PT033H.grib2 2026-05-03 03:58 1.8M
20260503T00Z_MSC_GDPS_WindSpeed_IsbL-0925_LatLon0.15_PT033H.grib2 2026-05-03 03:58 1.8M
20260503T00Z_MSC_GDPS_WindSpeed_IsbL-0950_LatLon0.15_PT033H.grib2 2026-05-03 03:58 1.9M
20260503T00Z_MSC_GDPS_WindSpeed_IsbL-0970_LatLon0.15_PT033H.grib2 2026-05-03 03:58 1.8M
20260503T00Z_MSC_GDPS_WindSpeed_IsbL-0985_LatLon0.15_PT033H.grib2 2026-05-03 03:58 1.8M
20260503T00Z_MSC_GDPS_WindSpeed_IsbL-1000_LatLon0.15_PT033H.grib2 2026-05-03 03:58 1.8M
20260503T00Z_MSC_GDPS_WindSpeed_IsbL-1015_LatLon0.15_PT033H.grib2 2026-05-03 03:58 1.8M
20260503T00Z_MSC_GDPS_WindU_AGL-10m_LatLon0.15_PT033H.grib2 2026-05-03 03:58 1.6M
20260503T00Z_MSC_GDPS_WindU_AGL-120m_LatLon0.15_PT033H.grib2 2026-05-03 03:58 965K
20260503T00Z_MSC_GDPS_WindU_AGL-40m_LatLon0.15_PT033H.grib2 2026-05-03 03:58 963K
20260503T00Z_MSC_GDPS_WindU_AGL-80m_LatLon0.15_PT033H.grib2 2026-05-03 03:58 966K
20260503T00Z_MSC_GDPS_WindU_IsbL-0001_LatLon0.15_PT033H.grib2 2026-05-03 03:58 503K
20260503T00Z_MSC_GDPS_WindU_IsbL-0005_LatLon0.15_PT033H.grib2 2026-05-03 03:58 694K
20260503T00Z_MSC_GDPS_WindU_IsbL-0010_LatLon0.15_PT033H.grib2 2026-05-03 03:58 708K
20260503T00Z_MSC_GDPS_WindU_IsbL-0020_LatLon0.15_PT033H.grib2 2026-05-03 03:58 738K
20260503T00Z_MSC_GDPS_WindU_IsbL-0030_LatLon0.15_PT033H.grib2 2026-05-03 03:58 747K
20260503T00Z_MSC_GDPS_WindU_IsbL-0050_LatLon0.15_PT033H.grib2 2026-05-03 03:58 776K
20260503T00Z_MSC_GDPS_WindU_IsbL-0100_LatLon0.15_PT033H.grib2 2026-05-03 03:58 929K
20260503T00Z_MSC_GDPS_WindU_IsbL-0150_LatLon0.15_PT033H.grib2 2026-05-03 03:58 1.0M
20260503T00Z_MSC_GDPS_WindU_IsbL-0175_LatLon0.15_PT033H.grib2 2026-05-03 03:58 1.0M
20260503T00Z_MSC_GDPS_WindU_IsbL-0200_LatLon0.15_PT033H.grib2 2026-05-03 03:58 839K
20260503T00Z_MSC_GDPS_WindU_IsbL-0225_LatLon0.15_PT033H.grib2 2026-05-03 03:58 852K
20260503T00Z_MSC_GDPS_WindU_IsbL-0250_LatLon0.15_PT033H.grib2 2026-05-03 03:58 856K
20260503T00Z_MSC_GDPS_WindU_IsbL-0275_LatLon0.15_PT033H.grib2 2026-05-03 03:58 884K
20260503T00Z_MSC_GDPS_WindU_IsbL-0300_LatLon0.15_PT033H.grib2 2026-05-03 03:58 877K
20260503T00Z_MSC_GDPS_WindU_IsbL-0350_LatLon0.15_PT033H.grib2 2026-05-03 03:58 892K
20260503T00Z_MSC_GDPS_WindU_IsbL-0400_LatLon0.15_PT033H.grib2 2026-05-03 03:58 1.1M
20260503T00Z_MSC_GDPS_WindU_IsbL-0450_LatLon0.15_PT033H.grib2 2026-05-03 03:58 1.1M
20260503T00Z_MSC_GDPS_WindU_IsbL-0500_LatLon0.15_PT033H.grib2 2026-05-03 03:58 1.1M
20260503T00Z_MSC_GDPS_WindU_IsbL-0550_LatLon0.15_PT033H.grib2 2026-05-03 03:58 1.1M
20260503T00Z_MSC_GDPS_WindU_IsbL-0600_LatLon0.15_PT033H.grib2 2026-05-03 03:58 1.1M
20260503T00Z_MSC_GDPS_WindU_IsbL-0650_LatLon0.15_PT033H.grib2 2026-05-03 03:58 1.2M
20260503T00Z_MSC_GDPS_WindU_IsbL-0700_LatLon0.15_PT033H.grib2 2026-05-03 03:58 1.2M
20260503T00Z_MSC_GDPS_WindU_IsbL-0750_LatLon0.15_PT033H.grib2 2026-05-03 03:58 1.2M
20260503T00Z_MSC_GDPS_WindU_IsbL-0800_LatLon0.15_PT033H.grib2 2026-05-03 03:58 1.4M
20260503T00Z_MSC_GDPS_WindU_IsbL-0850_LatLon0.15_PT033H.grib2 2026-05-03 03:58 1.4M
20260503T00Z_MSC_GDPS_WindU_IsbL-0875_LatLon0.15_PT033H.grib2 2026-05-03 03:58 1.5M
20260503T00Z_MSC_GDPS_WindU_IsbL-0900_LatLon0.15_PT033H.grib2 2026-05-03 03:58 1.5M
20260503T00Z_MSC_GDPS_WindU_IsbL-0925_LatLon0.15_PT033H.grib2 2026-05-03 03:58 1.4M
20260503T00Z_MSC_GDPS_WindU_IsbL-0950_LatLon0.15_PT033H.grib2 2026-05-03 03:58 1.4M
20260503T00Z_MSC_GDPS_WindU_IsbL-0970_LatLon0.15_PT033H.grib2 2026-05-03 03:58 1.4M
20260503T00Z_MSC_GDPS_WindU_IsbL-0985_LatLon0.15_PT033H.grib2 2026-05-03 03:58 1.4M
20260503T00Z_MSC_GDPS_WindU_IsbL-1000_LatLon0.15_PT033H.grib2 2026-05-03 03:58 1.7M
20260503T00Z_MSC_GDPS_WindU_IsbL-1015_LatLon0.15_PT033H.grib2 2026-05-03 03:58 1.6M
20260503T00Z_MSC_GDPS_WindV_AGL-10m_LatLon0.15_PT033H.grib2 2026-05-03 03:58 1.6M
20260503T00Z_MSC_GDPS_WindV_AGL-120m_LatLon0.15_PT033H.grib2 2026-05-03 03:58 959K
20260503T00Z_MSC_GDPS_WindV_AGL-40m_LatLon0.15_PT033H.grib2 2026-05-03 03:58 955K
20260503T00Z_MSC_GDPS_WindV_AGL-80m_LatLon0.15_PT033H.grib2 2026-05-03 03:58 960K
20260503T00Z_MSC_GDPS_WindV_IsbL-0001_LatLon0.15_PT033H.grib2 2026-05-03 03:58 716K
20260503T00Z_MSC_GDPS_WindV_IsbL-0005_LatLon0.15_PT033H.grib2 2026-05-03 03:58 859K
20260503T00Z_MSC_GDPS_WindV_IsbL-0010_LatLon0.15_PT033H.grib2 2026-05-03 03:58 890K
20260503T00Z_MSC_GDPS_WindV_IsbL-0020_LatLon0.15_PT033H.grib2 2026-05-03 03:58 862K
20260503T00Z_MSC_GDPS_WindV_IsbL-0030_LatLon0.15_PT033H.grib2 2026-05-03 03:58 943K
20260503T00Z_MSC_GDPS_WindV_IsbL-0050_LatLon0.15_PT033H.grib2 2026-05-03 03:58 1.0M
20260503T00Z_MSC_GDPS_WindV_IsbL-0100_LatLon0.15_PT033H.grib2 2026-05-03 03:58 860K
20260503T00Z_MSC_GDPS_WindV_IsbL-0150_LatLon0.15_PT033H.grib2 2026-05-03 03:58 1.0M
20260503T00Z_MSC_GDPS_WindV_IsbL-0175_LatLon0.15_PT033H.grib2 2026-05-03 03:58 1.0M
20260503T00Z_MSC_GDPS_WindV_IsbL-0200_LatLon0.15_PT033H.grib2 2026-05-03 03:58 838K
20260503T00Z_MSC_GDPS_WindV_IsbL-0225_LatLon0.15_PT033H.grib2 2026-05-03 03:58 908K
20260503T00Z_MSC_GDPS_WindV_IsbL-0250_LatLon0.15_PT033H.grib2 2026-05-03 03:58 909K
20260503T00Z_MSC_GDPS_WindV_IsbL-0275_LatLon0.15_PT033H.grib2 2026-05-03 03:58 934K
20260503T00Z_MSC_GDPS_WindV_IsbL-0300_LatLon0.15_PT033H.grib2 2026-05-03 03:58 927K
20260503T00Z_MSC_GDPS_WindV_IsbL-0350_LatLon0.15_PT033H.grib2 2026-05-03 03:58 940K
20260503T00Z_MSC_GDPS_WindV_IsbL-0400_LatLon0.15_PT033H.grib2 2026-05-03 03:58 886K
20260503T00Z_MSC_GDPS_WindV_IsbL-0450_LatLon0.15_PT033H.grib2 2026-05-03 03:58 887K
20260503T00Z_MSC_GDPS_WindV_IsbL-0500_LatLon0.15_PT033H.grib2 2026-05-03 03:58 1.1M
20260503T00Z_MSC_GDPS_WindV_IsbL-0550_LatLon0.15_PT033H.grib2 2026-05-03 03:58 1.1M
20260503T00Z_MSC_GDPS_WindV_IsbL-0600_LatLon0.15_PT033H.grib2 2026-05-03 03:58 1.1M
20260503T00Z_MSC_GDPS_WindV_IsbL-0650_LatLon0.15_PT033H.grib2 2026-05-03 03:58 1.2M
20260503T00Z_MSC_GDPS_WindV_IsbL-0700_LatLon0.15_PT033H.grib2 2026-05-03 03:58 1.2M
20260503T00Z_MSC_GDPS_WindV_IsbL-0750_LatLon0.15_PT033H.grib2 2026-05-03 03:58 1.3M
20260503T00Z_MSC_GDPS_WindV_IsbL-0800_LatLon0.15_PT033H.grib2 2026-05-03 03:58 1.3M
20260503T00Z_MSC_GDPS_WindV_IsbL-0850_LatLon0.15_PT033H.grib2 2026-05-03 03:58 1.4M
20260503T00Z_MSC_GDPS_WindV_IsbL-0875_LatLon0.15_PT033H.grib2 2026-05-03 03:58 1.4M
20260503T00Z_MSC_GDPS_WindV_IsbL-0900_LatLon0.15_PT033H.grib2 2026-05-03 03:58 1.4M
20260503T00Z_MSC_GDPS_WindV_IsbL-0925_LatLon0.15_PT033H.grib2 2026-05-03 03:58 1.4M
20260503T00Z_MSC_GDPS_WindV_IsbL-0950_LatLon0.15_PT033H.grib2 2026-05-03 03:58 1.4M
20260503T00Z_MSC_GDPS_WindV_IsbL-0970_LatLon0.15_PT033H.grib2 2026-05-03 03:58 1.4M
20260503T00Z_MSC_GDPS_WindV_IsbL-0985_LatLon0.15_PT033H.grib2 2026-05-03 03:58 1.4M
20260503T00Z_MSC_GDPS_WindV_IsbL-1000_LatLon0.15_PT033H.grib2 2026-05-03 03:58 1.7M
20260503T00Z_MSC_GDPS_WindV_IsbL-1015_LatLon0.15_PT033H.grib2 2026-05-03 03:58 1.6M